Regional Weather Roundup
Issued by NWS

Home | Current Version | Previous Version | Text Only | Print | Product List | Glossary Off
Versions: 1 2 3 4 5 6 7 8 9 10 11 12 13 14 15 16 17 18 19 20 21 22 23 24 25 26 27 28 29 30 31 32 33 34 35 36 37 38 39 40 41 42 43 44 45 46 47 48 49 50

000
ASUS43 KLSX 250107
RWRMO

WEATHER SUMMARY FOR MISSOURI
NATIONAL WEATHER SERVICE SPRINGFIELD MO
700 PM CST FRI FEB 24 2017

NOTE: "FAIR" INDICATES FEW OR NO CLOUDS BELOW 12,000 FEET WITH NO
       SIGNIFICANT WEATHER AND/OR OBSTRUCTIONS TO VISIBILITY.
       CURRENT SKY AND/OR WEATHER CONDITIONS ARE NOT AVAILABLE FOR
       CHILLICOTHE AND FARMINGTON.

MOZ001>031-035>038-043-044-053-054-250200-
...NORTHERN AND WESTERN MISSOURI...

CITY           SKY/WX    TMP DP  RH WIND       PRES   REMARKS
KANSAS CTY INT CLOUDY    28  20  71 NW20G28   29.94R WCI  15
KANSAS C DTWN  CLOUDY    30  20  66 NW12G23   29.95R WCI  20
LEE`S SUMMIT   CLOUDY    29  21  72 NW17      29.93R WCI  17
ST JOSEPH      LGT SNOW  26  23  88 NW16      29.96R FOG     WCI  14
CHILLICOTHE      N/A     28  23  81 NW15G25   29.88R WCI  16
KIRKSVILLE     LGT SNOW  29  26  89 NW23G29   29.78R FOG     WCI  15

$$
MOZ066>068-077>081-088>096-101>105-250200-
...SOUTHWEST MISSOURI...

CITY           SKY/WX    TMP DP  RH WIND       PRES   REMARKS
SPRINGFIELD    CLOUDY    38  25  59 W20G30    29.88R WCI  28
JOPLIN         CLOUDY    36  22  56 NW17G29   29.97R WCI  26
BRANSON        PTCLDY    45  25  45 W14G24    29.86R

$$
MOZ032>034-039>042-045>050-055>058-069>072-250200-
...CENTRAL MISSOURI...

CITY           SKY/WX    TMP DP  RH WIND       PRES   REMARKS
COLUMBIA       CLOUDY    36  26  67 W22G33    29.80R WCI  25
JEFFERSON CITY CLOUDY    40  28  62 W17G26    29.81R
ROLLA          CLOUDY    42  27  55 W14G29    29.76R
SEDALIA        CLOUDY    34  22  61 W22G32    29.88R WCI  22
WHITEMAN AFB   FLURRIES  32  22  67 W14       29.88R WCI  22
WARRENSBURG    CLOUDY    32  23  69 W10G20    29.90R WCI  24
OSAGE BEACH    CLOUDY    39  27  62 W15G26    29.85R

$$
MOZ051-052-059>065-250200-
...EAST CENTRAL MISSOURI...

CITY           SKY/WX    TMP DP  RH WIND       PRES   REMARKS
ST LOUIS INTL  PTCLDY    47  30  51 W16G22    29.72R
SPIRIT OF STL  MOCLDY    45  31  58 SW10G21   29.72R
ST CHARLES     MOCLDY    46  31  55 SW16      29.70R

$$
MOZ072>076-082>087-097>100-106>115-250200-
...SOUTH CENTRAL AND SOUTHEAST MISSOURI...

CITY           SKY/WX    TMP DP  RH WIND       PRES   REMARKS
CAPE GIRARDEAU PTCLDY    55  32  41 W14       29.70R
FARMINGTON     PTCLDY    48  30  49 W8        29.74R
POPLAR BLUFF   CLEAR     56  32  40 W13       29.74R
WEST PLAINS    CLEAR     46  28  49 W10G25    29.80R

$$


USA.gov is the U.S. government's official web portal to all federal, state and local government web resources and services.